Flag for South Africa Weather past 2 weeks in Stellenbosch, South Africa

Now
64 °F

Passing clouds.


Feels Like: 64 °F
Forecast: 58 / 78 °F
Wind: 14 mph from South

Location: Cape Town International Airport

Current Time: Apr 2, 2015 at 12:54:18 AM

Latest Report: Apr 2, 2015 at 12:00 AM


Visibility: N/A

Pressure: 30.07 "Hg

Humidity: 83%

Dew point: 59 °F

Location of StellenboschLocation

Historic Weather in Stellenbosch — Graph

°F

Stellenbosch temperature yesterday

Maximum temperature yesterday: 77 °F (at 1:00 PM)
Minimum temperature yesterday: 57 °F (at 5:00 AM)
Average temperature yesterday: 66 °F

Past Weeks' High & Low Weather Summary

 TemperatureHumidityPressure
High82 °F (Mar 28, 2:00 PM)94% (Mar 19, 2:00 AM)30.15 "Hg (Mar 19, 2:00 AM)
Low57 °F (Mar 22, 4:00 AM)30% (Mar 31, 3:00 PM)29.71 "Hg (Mar 18, 5:00 AM)
Average68 °F72%29.94 "Hg
* Reported Mar 17 11:00 PM — Apr 1 11:00 PM, Stellenbosch, Weather by CustomWeather, © 2015

Note: Actual official high and low records may vary slightly from our data, if they occured in-between our weather recording intervals... More about our weather records

Advertising

Stellenbosch weather history for previous 24 hours

 ConditionsComfort  
Time TempWeatherWind HumidityBarometerVisibility
11:00 PM
Wed, Apr 1
64 °FPassing clouds.10 mph83%30.07 "HgN/A
10:00 PM64 °FPassing clouds.14 mph83%30.07 "HgN/A
9:00 PM66 °FPassing clouds.14 mph78%30.07 "HgN/A
8:00 PM66 °FPassing clouds.18 mph78%30.07 "HgN/A
7:00 PM66 °FPassing clouds.21 mph83%30.07 "HgN/A
6:00 PM68 °FPassing clouds.22 mph78%30.07 "HgN/A
5:00 PM70 °FPartly sunny.23 mph73%30.07 "HgN/A
4:00 PM72 °FPassing clouds.23 mph73%30.07 "HgN/A
3:00 PM75 °FPassing clouds.20 mph61%30.07 "HgN/A
2:00 PM75 °FPassing clouds.17 mph65%30.07 "HgN/A
1:00 PM77 °FPassing clouds.14 mph57%30.07 "HgN/A
12:00 PM75 °FPassing clouds.10 mph61%30.09 "HgN/A
11:00 AM73 °FPartly sunny.9 mph61%30.09 "HgN/A
10:00 AM70 °FScattered clouds.12 mph69%30.09 "HgN/A
9:00 AM66 °FScattered clouds.5 mph78%30.09 "HgN/A
8:00 AM61 °FClear.1 mph94%30.07 "Hg5 mi
7:00 AM57 °FSunny.2 mph94%30.04 "Hg10 mi
6:00 AM57 °FSunny.1 mph88%30.04 "Hg10 mi
5:00 AM57 °FFog.2 mph94%30.04 "Hg1 mi
4:00 AM61 °FClear.2 mph88%30.04 "Hg10 mi
3:00 AM61 °FPassing clouds.3 mph88%30.04 "HgN/A
2:00 AM61 °FClear.1 mph88%30.04 "Hg10 mi
1:00 AM63 °FClear.3 mph88%30.04 "Hg10 mi
12:00 AM61 °FClear.6 mph88%30.04 "Hg10 mi
Weather by CustomWeather, © 2015

See weather overviewHow to use our weather pages